Regional Weather Roundup
Issued by NWS Charleston, WV

Home | Current Version | Previous Version | Graphics & Text | Print | Product List | Glossary On
Versions: 1 2 3 4 5 6 7 8 9 10 11 12 13 14 15 16 17 18 19 20 21 22 23 24 25 26 27
000
ASUS41 KRLX 261710
RWRRLX
West Virginia Regional Weather Roundup
National Weather Service Charleston WV
100 PM EDT WED APR 26 2017

Note: "fair" indicates few or no clouds below 12,000 feet with no
significant weather and/or obstructions to visibility.

WVZ003-261800-
Northern Panhandle of West Virginia

CITY           SKY/WX    TMP DP  RH WIND       PRES   REMARKS
WHEELING       SUNNY     72  55  55 W6        29.77F
$$

WVZ009-261800-
Northwest West Virginia

CITY           SKY/WX    TMP DP  RH WIND       PRES   REMARKS
PARKERSBURG    MOSUNNY   77  57  50 S8        29.78F
$$

WVZ006-261800-
Western West Virginia

CITY           SKY/WX    TMP DP  RH WIND       PRES   REMARKS
HUNTINGTON     MOSUNNY   78  58  49 SW5       29.76F
$$

WVZ015-261800-
West Central West Virginia

CITY           SKY/WX    TMP DP  RH WIND       PRES   REMARKS
CHARLESTON     MOSUNNY   76  56  49 S5        29.77F
$$

WVZ022-031-261800-
North Central West Virginia

CITY           SKY/WX    TMP DP  RH WIND       PRES   REMARKS
CLARKSBURG     MOSUNNY   72  55  55 CALM      29.78F
MORGANTOWN     SUNNY     73  54  51 VRB3      29.79F
$$

WVZ025-035-042-045-261800-
Southern West Virginia

CITY           SKY/WX    TMP DP  RH WIND       PRES   REMARKS
BECKLEY        PTSUNNY   72  54  53 SW7       29.84F
LOGAN          NOT AVBL
BLUEFIELD      MOSUNNY   69  52  54 N6        29.87F
LEWISBURG      MOSUNNY   70  56  61 SW6       29.83F
$$

WVZ047-261800-
Northern Mountains of West Virginia

CITY           SKY/WX    TMP DP  RH WIND       PRES   REMARKS
ELKINS         PTSUNNY   70  53  54 VRB6      29.81F
$$

WVZ052-261800-
Eastern Panhandle of West Virginia

CITY           SKY/WX    TMP DP  RH WIND       PRES   REMARKS
MARTINSBURG    CLOUDY    67  56  67 VRB5      29.78F
PETERSBURG     SUNNY     70  60  70 E3        29.79F
$$




USA.gov is the U.S. government's official web portal to all federal, state and local government web resources and services.